[[{"header":{"parameterUnit":"m.s-1","parameterCategory":1,"la1":30.2991,"la2":30.254,"lo1":-89.0895,"lo2":-89.0444,"dx":0.0017,"dy":0.0017,"nx":28,"ny":28,"refTime":"2023-01-07T03:00:00:Z","depth":0,"parameterNumber":2,"parameterNumberName":"U-component_of_WINDS"},"data":[0,0,0,0,0,0,0,0,0,0,0,0,0,0,0,0,0,0,0,0,0,0,0,0,0,0,0,0,0,0,0,0,0,0,0,0,0,0,0,0,0,0,0,0,0,0,0,0,0,0,0,0,0,0,0,0,0,0,-2.3625,-2.3626,0,-2.3673,-2.3673,-2.3674,-2.3664,-2.3664,-2.3663,-2.3662,-2.3709,-2.3711,-2.3713,0,0,0,0,0,0,0,0,0,0,0,0,0,-2.3524,-2.3526,-2.3625,-2.3626,-2.3626,-2.3673,-2.3673,-2.3674,-2.3665,-2.3664,-2.3662,-2.3661,-2.3708,-2.3711,-2.3713,0,0,0,0,0,0,0,0,0,0,0,0,0,-2.3569,-2.3527,-2.3625,-2.3627,-2.3628,-2.3673,-2.3673,-2.3674,-2.3665,-2.3663,-2.3662,-2.3661,-2.3708,-2.3711,-2.3714,-2.3759,0,0,-2.3723,-2.3724,0,0,0,0,0,0,0,0,-2.3567,-2.3573,-2.3626,-2.3627,-2.3628,-2.3661,-2.3655,-2.3702,-2.3665,-2.3651,-2.3662,-2.366,-2.3694,-2.3698,-2.371,-2.3761,-2.3763,-2.3723,-2.3725,-2.3727,-2.3728,0,0,0,0,0,0,0,-2.3564,-2.3571,-2.3644,-2.3627,-2.3628,-2.3625,-2.363,-2.3664,-2.3679,-2.3652,-2.3651,-2.3657,-2.3694,-2.3707,-2.3711,-2.3764,-2.3723,-2.3726,-2.3728,-2.3729,-2.3852,-2.3854,0,0,0,0,0,0,-2.356,-2.3569,-2.3642,-2.3645,-2.3594,-2.3628,-2.3634,-2.3652,-2.3679,-2.3682,-2.3658,-2.3657,-2.3702,-2.3707,-2.3713,-2.3766,-2.3727,-2.373,-2.3731,-2.3851,-2.3853,-2.3854,0,0,0,0,0,0,-2.3558,-2.3567,-2.364,-2.3607,-2.3616,-2.3631,-2.3652,-2.3654,-2.3666,-2.3684,-2.3686,-2.3669,-2.3702,-2.3708,-2.3747,-2.3768,-2.3731,-2.3734,-2.3849,-2.3851,-2.3853,-2.3874,0,0,0,0,0,0,-2.3555,-2.3566,-2.3584,-2.3607,-2.3618,-2.3675,-2.3653,-2.3655,-2.3672,-2.367,-2.3694,-2.3696,-2.3701,-2.3743,-2.375,-2.3771,-2.3736,-2.3847,-2.385,-2.3853,-2.3871,-2.3876,-2.388,0,0,0,0,0,-2.3552,-2.3587,-2.3585,-2.3594,-2.364,-2.3676,-2.3682,-2.3687,-2.3673,-2.3691,-2.3702,-2.3696,-2.3764,-2.3747,-2.3755,-2.3777,-2.3846,-2.3849,-2.3853,-2.3869,-2.3875,-2.388,0,0,0,0,0,0,-2.3566,-2.3591,-2.3588,-2.3633,-2.3652,-2.3674,-2.3696,-2.3693,-2.3717,-2.3714,-2.3719,-2.3724,-2.3764,-2.3775,-2.3754,-2.3822,-2.3803,-2.3808,-2.3813,-2.3819,-2.3823,-2.3819,-2.3739,0,0,0,0,0,-2.3574,-2.3601,-2.3622,-2.3659,-2.3669,-2.3681,-2.3697,-2.3699,-2.3719,-2.3727,-2.3741,-2.3761,-2.3787,-2.3804,-2.3828,-2.3873,-2.3877,-2.3892,-2.3897,-2.3901,-2.3905,-2.3928,-2.3935,-2.3865,-2.3865,-2.3865,0,0,-2.3591,-2.3608,-2.3625,-2.3662,-2.3678,-2.3705,-2.3688,-2.3718,-2.3738,-2.3732,-2.3769,-2.378,-2.3802,-2.3844,-2.3863,-2.3854,-2.3925,-2.3905,-2.3908,-2.391,-2.3932,-2.3939,-2.3944,-2.3867,-2.3866,-2.3866,0,0,-2.3637,-2.3653,-2.3685,-2.3701,-2.3725,-2.3733,-2.3741,-2.3763,-2.377,-2.3808,-2.3803,-2.3827,-2.3872,-2.3888,-2.3901,-2.3952,-2.3947,-2.396,-2.3984,-2.4007,-2.4012,-2.4017,-2.4034,-2.404,-2.3964,-2.3965,-2.3965,0,-2.3655,-2.3697,-2.3702,-2.3733,-2.3748,-2.3745,-2.3777,-2.3792,-2.3822,-2.3833,-2.3823,-2.3879,-2.3893,-2.3938,-2.395,-2.3962,-2.397,-2.3957,-2.4011,-2.4016,-2.4021,-2.4037,-2.4043,-2.3966,-2.3966,-2.3966,-2.3965,0,-2.3718,-2.3747,-2.377,-2.38,-2.3818,-2.3849,-2.3859,-2.3877,-2.3878,-2.3886,-2.3924,-2.3942,-2.3969,-2.398,-2.3981,-2.4025,-2.4019,-2.401,-2.3991,-2.4029,-2.4044,-2.405,-2.3968,-2.3967,-2.3967,-2.3967,0,0,-2.3773,-2.3805,-2.3813,-2.3826,-2.3852,-2.3874,-2.3905,-2.3933,-2.3947,-2.3969,-2.3994,-2.4032,-2.4024,-2.4039,-2.4042,-2.4062,-2.41,-2.4051,-2.4051,-2.4058,-2.4147,-2.4153,-2.416,-2.4097,-2.4098,-2.4099,-2.4145,0,-2.382,-2.3874,-2.388,-2.3928,-2.3954,-2.3951,-2.3977,-2.3995,-2.4004,-2.4027,-2.4037,-2.4063,-2.4051,-2.406,-2.408,-2.4091,-2.4117,-2.4088,-2.4119,-2.412,-2.4112,-2.4168,-2.4174,-2.4217,-2.4151,-2.4152,-2.4153,0,-2.3882,-2.3904,-2.3955,-2.3977,-2.3988,-2.4012,-2.4037,-2.406,-2.408,-2.4085,-2.4102,-2.4102,-2.4133,-2.4114,-2.4156,-2.4135,-2.4149,-2.4156,-2.4157,-2.4159,-2.4138,-2.4171,-2.4231,-2.4237,-2.4163,-2.4162,-2.4161,0,-2.3915,-2.3959,-2.3995,-2.4006,-2.4032,-2.4049,-2.406,-2.408,-2.4096,-2.4118,-2.4128,-2.4153,-2.4167,-2.4186,-2.4192,-2.4178,-2.4233,-2.4215,-2.4237,-2.4237,-2.4248,-2.4247,-2.431,-2.4259,-2.4259,-2.4259,-2.4259,0,-2.3966,-2.3997,-2.401,-2.4032,-2.4066,-2.4072,-2.4106,-2.4117,-2.4134,-2.4157,-2.4156,-2.4178,-2.4185,-2.4208,-2.4213,-2.4246,-2.4253,-2.4257,-2.4258,-2.4256,-2.4256,-2.4264,-2.4261,-2.426,-2.426,-2.426,-2.4259,0,-2.4009,-2.4019,-2.4058,-2.4079,-2.4085,-2.411,-2.4128,-2.4148,-2.4157,-2.4187,-2.4194,-2.4207,-2.4234,-2.4242,-2.4275,-2.4278,-2.4317,-2.4315,-2.431,-2.4309,-2.433,-2.4328,-2.44,-2.4409,-2.4353,-2.4354,-2.4354,0,-2.404,-2.4064,-2.4088,-2.4104,-2.4116,-2.4142,-2.4158,-2.4164,-2.4181,-2.4206,-2.4223,-2.425,-2.4272,-2.4315,-2.4327,-2.4351,-2.435,-2.4374,-2.4353,-2.4351,-2.4349,-2.4347,-2.4348,-2.4377,-2.4377,-2.4378,-2.4378,0,-2.4095,-2.4098,-2.4122,-2.4147,-2.4166,-2.4187,-2.4206,-2.4219,-2.4228,-2.4247,-2.4275,-2.4291,-2.4324,-2.4351,-2.4375,-2.4387,-2.4384,-2.4385,-2.4391,-2.4389,-2.4384,-2.4386,-2.4318,-2.4383,-2.4382,-2.4382,-2.4382,-2.4382,-2.4132,-2.4152,-2.4172,-2.4198,-2.4214,-2.4232,-2.4252,-2.4263,-2.4286,-2.4314,-2.4316,-2.4346,-2.4365,-2.4398,-2.441,-2.4433,-2.4426,-2.4435,-2.4437,-2.4439,-2.444,-2.4382,-2.4438,-2.4438,-2.4437,-2.4437,-2.4437,0,-2.4185,-2.4197,-2.4221,-2.4249,-2.4269,-2.4265,-2.4286,-2.4303,-2.4329,-2.4347,-2.4368,-2.44,-2.4425,-2.4439,-2.4464,-2.4479,-2.4478,-2.4485,-2.4484,-2.4486,-2.4446,-2.4437,-2.4485,-2.4485,-2.4485,-2.4485,-2.4485,-2.4485,-2.4215,-2.4249,-2.4255,-2.4296,-2.4308,-2.4337,-2.4349,-2.4366,-2.438,-2.4415,-2.4436,-2.4445,-2.4461,-2.4487,-2.451,-2.4513,-2.4522,-2.453,-2.4532,-2.4494,-2.4489,-2.4484,-2.4476,-2.4532,-2.4532,-2.457,-2.4571,-2.4571]},{"header":{"parameterUnit":"m.s-1","parameterCategory":1,"la1":30.2991,"la2":30.254,"lo1":-89.0895,"lo2":-89.0444,"dx":0.0017,"dy":0.0017,"nx":28,"ny":28,"refTime":"2023-01-07T03:00:00:Z","depth":0,"parameterNumber":3,"parameterNumberName":"V-component_of_WINDS"},"data":[0,0,0,0,0,0,0,0,0,0,0,0,0,0,0,0,0,0,0,0,0,0,0,0,0,0,0,0,0,0,0,0,0,0,0,0,0,0,0,0,0,0,0,0,0,0,0,0,0,0,0,0,0,0,0,0,0,0,1.0542,1.0542,0,1.0569,1.0569,1.0569,1.0544,1.0543,1.0542,1.0541,1.0568,1.0569,1.0571,0,0,0,0,0,0,0,0,0,0,0,0,0,1.0471,1.0472,1.0542,1.0542,1.0543,1.0569,1.0569,1.0569,1.0544,1.0543,1.0542,1.0541,1.0567,1.0569,1.0571,0,0,0,0,0,0,0,0,0,0,0,0,0,1.05,1.0472,1.0542,1.0533,1.0533,1.0568,1.0569,1.0569,1.0545,1.0543,1.0542,1.054,1.0567,1.0569,1.0571,1.0616,0,0,1.0579,1.058,0,0,0,0,0,0,0,0,1.0498,1.0502,1.0534,1.0534,1.0534,1.0552,1.0553,1.0585,1.0545,1.054,1.0541,1.054,1.0564,1.0566,1.0574,1.0618,1.0619,1.0579,1.0581,1.0582,1.0582,0,0,0,0,0,0,0,1.0496,1.0501,1.0552,1.0535,1.0534,1.0529,1.0531,1.0559,1.056,1.0541,1.0539,1.0542,1.0563,1.0572,1.0575,1.0619,1.0579,1.0581,1.0583,1.0584,1.0703,1.0704,0,0,0,0,0,0,1.0495,1.05,1.0552,1.0553,1.0512,1.0531,1.0534,1.0547,1.056,1.056,1.0544,1.0541,1.0569,1.0572,1.0576,1.063,1.0582,1.0584,1.0585,1.0701,1.0703,1.0705,0,0,0,0,0,0,1.0494,1.05,1.0551,1.0526,1.0532,1.0534,1.0549,1.0549,1.0558,1.0562,1.0562,1.0553,1.0568,1.0572,1.0607,1.0631,1.0585,1.0587,1.0699,1.0702,1.0704,1.074,0,0,0,0,0,0,1.0492,1.05,1.0516,1.0527,1.0533,1.0581,1.0551,1.055,1.0562,1.0559,1.057,1.0571,1.0567,1.0603,1.0609,1.0633,1.0589,1.0697,1.07,1.0703,1.0736,1.0743,1.0749,0,0,0,0,0,1.0489,1.0525,1.0517,1.0524,1.0555,1.0583,1.0587,1.0581,1.0564,1.0581,1.0584,1.057,1.0627,1.0607,1.0614,1.0639,1.0695,1.0699,1.0703,1.0733,1.0742,1.0749,0,0,0,0,0,0,1.0517,1.0526,1.0518,1.0558,1.057,1.0578,1.06,1.059,1.0607,1.0603,1.0596,1.0599,1.0636,1.0641,1.0618,1.0684,1.0659,1.0664,1.068,1.0687,1.0694,1.0692,1.0591,0,0,0,0,0,1.0527,1.0549,1.0556,1.0591,1.0598,1.0598,1.061,1.0605,1.0617,1.0622,1.0627,1.064,1.066,1.0674,1.0693,1.0737,1.074,1.0758,1.0764,1.0769,1.0774,1.0799,1.0807,1.0717,1.0717,1.0717,0,0,1.055,1.0557,1.0572,1.0597,1.0605,1.0629,1.0602,1.0628,1.0645,1.0626,1.0659,1.0664,1.0677,1.0717,1.0735,1.0722,1.0799,1.0774,1.0778,1.078,1.0804,1.0812,1.082,1.072,1.072,1.0719,0,0,1.0602,1.061,1.0641,1.065,1.0664,1.0665,1.0672,1.0683,1.0685,1.0719,1.0705,1.0726,1.0762,1.0772,1.0782,1.0841,1.083,1.0848,1.0881,1.0905,1.0912,1.0918,1.0941,1.0948,1.0852,1.0853,1.0853,0,1.0628,1.0663,1.0657,1.0685,1.0696,1.0681,1.0712,1.0722,1.0741,1.075,1.0736,1.0781,1.0789,1.0832,1.0847,1.0855,1.0864,1.0846,1.0912,1.0918,1.0924,1.0945,1.0953,1.0855,1.0854,1.0854,1.0854,0,1.0695,1.0719,1.0742,1.0762,1.0777,1.0806,1.0805,1.0821,1.0815,1.0817,1.0853,1.0861,1.0883,1.0893,1.0887,1.0936,1.0928,1.0913,1.0887,1.0934,1.0954,1.0962,1.0858,1.0857,1.0856,1.0856,0,0,1.0764,1.0782,1.0791,1.0801,1.0816,1.0835,1.0864,1.0885,1.0899,1.0914,1.0938,1.097,1.0957,1.0968,1.0964,1.0985,1.1033,1.0968,1.0968,1.098,1.1089,1.11,1.111,1.1026,1.1027,1.1028,1.1088,0,1.0818,1.0869,1.0865,1.0913,1.0936,1.0923,1.0948,1.0961,1.0964,1.0984,1.0987,1.101,1.0991,1.0998,1.1019,1.1023,1.1055,1.1018,1.1049,1.105,1.1047,1.112,1.1131,1.1187,1.1095,1.1097,1.1098,0,1.0887,1.0905,1.0956,1.0969,1.0979,1.1002,1.1022,1.1042,1.1056,1.1057,1.1071,1.1064,1.1094,1.1067,1.1109,1.1085,1.1097,1.1101,1.1103,1.1106,1.1077,1.1125,1.1205,1.1213,1.1109,1.1108,1.1108,0,1.0935,1.0971,1.1006,1.1015,1.1031,1.1048,1.1055,1.1068,1.1082,1.11,1.1109,1.1131,1.1142,1.1159,1.1158,1.1139,1.1201,1.1174,1.1203,1.1203,1.1217,1.1216,1.13,1.1224,1.1224,1.1224,1.1224,0,1.0995,1.1027,1.1028,1.105,1.1085,1.1081,1.1117,1.1122,1.1134,1.1157,1.1147,1.1169,1.1166,1.1188,1.1187,1.1223,1.1228,1.123,1.123,1.1231,1.1231,1.124,1.1236,1.1226,1.1226,1.1225,1.1225,0,1.1054,1.1056,1.1093,1.1106,1.111,1.1136,1.1147,1.1168,1.1171,1.12,1.1207,1.1212,1.1237,1.1238,1.1267,1.1267,1.1311,1.1306,1.1306,1.1306,1.1335,1.1332,1.1427,1.144,1.1355,1.1356,1.1357,0,1.1093,1.1117,1.1133,1.1148,1.1157,1.1181,1.1195,1.1193,1.1209,1.1228,1.1247,1.1272,1.1292,1.1334,1.134,1.1363,1.1359,1.1391,1.1362,1.1364,1.136,1.1359,1.1362,1.1396,1.1397,1.1398,1.1398,0,1.1162,1.1162,1.1184,1.1206,1.1224,1.1241,1.1258,1.127,1.127,1.1289,1.1315,1.1331,1.1362,1.1387,1.141,1.1418,1.1409,1.1408,1.1416,1.1418,1.1418,1.1419,1.1322,1.1405,1.1405,1.1404,1.1404,1.1403,1.1212,1.1234,1.1249,1.1274,1.1286,1.1302,1.1323,1.1329,1.1351,1.1376,1.1374,1.1404,1.1419,1.1449,1.1459,1.1483,1.1472,1.1483,1.1486,1.1489,1.1493,1.1414,1.1487,1.1487,1.1486,1.1486,1.1486,0,1.1282,1.1291,1.1314,1.1338,1.1358,1.1348,1.1366,1.1383,1.141,1.1425,1.1445,1.1477,1.1502,1.1511,1.1535,1.1553,1.155,1.156,1.1558,1.1561,1.1501,1.1492,1.1562,1.1562,1.1562,1.1562,1.1562,1.1562,1.1321,1.1357,1.1359,1.1402,1.1411,1.1441,1.1452,1.1467,1.148,1.1516,1.1537,1.1542,1.1556,1.1581,1.1604,1.1606,1.1616,1.1628,1.1629,1.1572,1.1565,1.1557,1.1549,1.163,1.163,1.1687,1.1687,1.1688]}]]